Tracking 30308 objects as of 19-Apr-2025
HD Live streaming from Space Station
objects crossing your sky now

THORAD DELTA 1 DEB

Track THORAD DELTA 1 DEB now!
10-day predictions


NORAD ID: 8403
Int'l Code: 1974-089CF
Perigee: 1,439.8 km
Apogee: 1,528.5 km
Inclination: 101.5 °
Period: 115.5 minutes
Semi major axis: 7855 km
RCS: 0.0456 m2 (small)
Launch date: November 15, 1974
Source: United States (US)
Launch site: AIR FORCE WESTERN TEST RANGE (AFWTR)

Note: This is SATELLITE DEBRIS
Your satellite tracking list
Your tracking list is empty




NASA's NSSDC Master Catalog

Two Line Element Set (TLE):
1 08403U 74089CF  25107.81902328  .00000048  00000-0  61555-3 0  9998
2 08403 101.5269 218.3440 0056422 138.5498  14.3691 12.47010051296473
Source of the keplerian elements: AFSPC